This demonstration page uses our WeatherBlox Daily Observations layout. Learn more.

Left ArrowRight Arrow

41.12389, -100.76542

Hourly Observations for June 29, 2022

Temp ( °F °C ) Dew Point ( °F °C ) Humidity (%) Winds ( mph kmh ) Pressure ( in mb ) Visibility ( mi km ) Precip ( " mm )
12:53 am 00:53 Clear 73 22.8 47 8.3 40 40 VRB 5 7 30.01 1016 10 16 0.00 0.00
1:53 am 01:53 Clear 74 23.3 46 7.8 37 37 S 12 19 29.98 1015 10 16 0.00 0.00
2:53 am 02:53 Clear 73 22.8 47 8.3 40 40 S 8 13 29.98 1015 10 16 0.00 0.00
3:53 am 03:53 Clear 73 22.8 50 10 44 44 S 10 17 29.98 1015 10 16 0.00 0.00
4:53 am 04:53 Clear 71 21.7 53 11.7 53 53 S 10 17 29.97 1015 10 16 0.00 0.00
5:53 am 05:53 Clear 69 20.6 55 12.8 61 61 Calm 29.98 1015 10 16 0.00 0.00
6:53 am 06:53 Sunny 69 20.6 57 13.9 66 66 VRB 3 6 29.98 1015 10 16 0.00 0.00
7:53 am 07:53 Sunny 75 23.9 59 15 58 58 VRB 6 9 29.96 1015 10 16 0.00 0.00
8:53 am 08:53 Sunny 81 27.2 60 15.6 49 49 SSW 8 13 29.97 1015 10 16 0.00 0.00
9:53 am 09:53 Sunny 88 31.1 54 12.2 31 31 S 21 33 29.97 1015 10 16 0.00 0.00
10:53 am 10:53 Sunny 93 33.9 52 11.1 25 25 S 21 33 29.94 1014 10 16 0.00 0.00
11:53 am 11:53 Sunny 96 35.6 47 8.3 19 19 S 21 33 29.93 1014 10 16 0.00 0.00
12:53 pm 12:53 Sunny 98 36.7 48 8.9 18 18 S 16 26 29.91 1013 10 16 0.00 0.00
1:53 pm 13:53 Sunny 99 37.2 49 9.4 18 18 S 17 28 29.89 1012 10 16 0.00 0.00
2:53 pm 14:53 Sunny 101 38.3 48 8.9 17 17 SSW 16 26 29.86 1011 10 16 0.00 0.00
3:53 pm 15:53 Sunny 101 38.3 48 8.9 17 17 S 20 31 29.83 1010 10 16 0.00 0.00
4:53 pm 16:53 Sunny 102 38.9 48 8.9 16 16 S 18 30 29.80 1009 10 16 0.00 0.00
5:53 pm 17:53 Sunny 98 36.7 45 7.2 16 16 S 21 33 29.80 1009 10 16 0.00 0.00
6:53 pm 18:53 Sunny 96 35.6 46 7.8 18 18 S 14 22 29.78 1008 10 16 0.00 0.00
7:53 pm 19:53 Sunny 95 35 44 6.7 17 17 S 14 22 29.79 1009 10 16 0.00 0.00
8:53 pm 20:53 Sunny 87 30.6 50 10 28 28 VRB 5 7 29.80 1009 10 16 0.00 0.00
9:53 pm 21:53 Clear 83 28.3 49 9.4 31 31 SSE 8 13 29.79 1009 10 16 0.00 0.00
10:53 pm 22:53 Clear 82 27.8 48 8.9 31 31 SSW 5 7 29.81 1010 10 16 0.00 0.00
11:53 pm 23:53 Clear 78 25.6 49 9.4 36 36 W 5 7 29.84 1011 10 16 0.00 0.00

Powered by AerisWeather